This demonstration page uses our WeatherBlox Daily Observations layout. Learn more.

Left ArrowRight Arrow

39.51506, -84.39828

Hourly Observations for June 7, 2016

Temp ( °F °C ) Dew Point ( °F °C ) Humidity (%) Winds ( mph kmh ) Pressure ( in mb ) Visibility ( mi km ) Precip ( " mm )
12:15 am 00:15 Clear 64 17.9 53 11.5 66 66 W 6 9 29.68 1005 10 16 N/A
12:35 am 00:35 Clear 64 18 51 10.5 62 62 W 7 11 29.68 1005 10 16 N/A
12:55 am 00:55 Clear 62 16.7 51 10.7 68 68 W 7 11 29.71 1006 10 16 N/A
1:15 am 01:15 Clear 63 17 52 10.9 68 68 ENE 5 7 29.71 1006 10 16 N/A
1:35 am 01:35 Clear 65 18.6 51 10.7 60 60 N N/A 29.71 1006 10 16 N/A
1:55 am 01:55 Clear 62 16.7 52 11.1 70 70 N N/A 29.71 1006 10 16 N/A
2:15 am 02:15 Partly Cloudy 62 16.6 52 11.2 71 71 N N/A 29.71 1006 10 16 N/A
2:35 am 02:35 Partly Cloudy 60 15.5 52 11.1 75 75 N N/A 29.71 1006 10 16 N/A
2:55 am 02:55 Partly Cloudy 60 15.3 53 11.5 78 78 N N/A 29.68 1005 10 16 N/A
3:15 am 03:15 Partly Cloudy 60 15.3 53 11.7 79 79 N N/A 29.71 1006 10 16 N/A
3:35 am 03:35 Partly Cloudy 60 15.5 53 11.4 77 77 N N/A 29.71 1006 10 16 N/A
3:55 am 03:55 Partly Cloudy 60 15.3 51 10.7 74 74 N 3 6 29.71 1006 10 16 N/A
4:15 am 04:15 Partly Cloudy 61 15.9 51 10.6 71 71 N N/A 29.71 1006 10 16 N/A
4:35 am 04:35 Partly Cloudy 60 15.3 52 11 76 76 N N/A 29.71 1006 10 16 N/A
4:55 am 04:55 Clear 60 15.3 50 10 71 71 N 3 6 29.71 1006 10 16 N/A
5:15 am 05:15 Clear 60 15.3 52 11 76 76 N N/A 29.71 1006 10 16 N/A
5:35 am 05:35 Clear 60 15.3 52 11.2 77 77 N N/A 29.71 1006 10 16 N/A
5:55 am 05:55 Clear 57 13.8 50 9.9 78 78 N N/A 29.71 1006 10 16 N/A
6:15 am 06:15 Sunny 57 13.8 50 9.9 78 78 N N/A 29.71 1006 10 16 N/A
6:35 am 06:35 Partly Cloudy 57 13.8 50 10 78 78 N N/A 29.74 1007 10 16 N/A
6:55 am 06:55 Mostly Cloudy 57 14.1 51 10.3 78 78 N N/A 29.74 1007 10 16 N/A
7:15 am 07:15 Partly Cloudy 60 15.3 52 11.3 77 77 N N/A 29.74 1007 10 16 N/A
7:35 am 07:35 Mostly Cloudy 62 16.6 53 11.5 72 72 N N/A 29.74 1007 10 16 N/A
7:55 am 07:55 Partly Cloudy 63 17.4 51 10.4 64 64 NNW 5 7 29.74 1007 10 16 N/A
8:15 am 08:15 Sunny 67 19.5 51 10.6 57 57 NNW 5 7 29.74 1007 10 16 N/A
8:35 am 08:35 Sunny 69 20.8 52 11.1 54 54 NNW 7 11 29.74 1007 10 16 N/A
8:55 am 08:55 Sunny 69 20.8 49 9.5 49 49 NNW 8 13 29.77 1008 10 16 N/A
9:15 am 09:15 Sunny 69 20.8 49 9.2 48 48 NW 9 15 29.77 1008 10 16 N/A
9:35 am 09:35 Sunny 69 20.8 48 8.8 46 46 NW 9 15 29.77 1008 10 16 N/A
9:55 am 09:55 Sunny 71 21.7 49 9.2 45 45 WNW 8 13 29.77 1008 10 16 N/A
10:15 am 10:15 Sunny 72 22.3 49 9.2 43 43 WNW 8 13 29.77 1008 10 16 N/A
10:35 am 10:35 Sunny 74 23.2 50 9.8 43 43 NW 13 20 29.77 1008 10 16 N/A
10:55 am 10:55 Sunny 74 23.6 49 9.7 41 41 WNW 14 22 29.77 1008 10 16 N/A
11:15 am 11:15 Partly Cloudy 74 23.6 49 9.6 41 41 WNW 9 15 29.77 1008 10 16 N/A
11:35 am 11:35 Mostly Cloudy 72 22.3 48 9 43 43 W 12 19 29.77 1008 10 16 N/A
11:55 am 11:55 Partly Cloudy 74 23.6 49 9.3 40 40 NW 8 13 29.77 1008 10 16 N/A
12:15 pm 12:15 Partly Cloudy 74 23.6 49 9.4 41 41 W 12 19 29.80 1009 10 16 N/A
12:35 pm 12:35 Partly Cloudy 74 23.6 48 8.8 39 39 NW 13 20 29.80 1009 10 16 N/A
12:55 pm 12:55 Partly Cloudy 74 23.6 49 9.6 41 41 WNW 15 24 29.80 1009 10 16 N/A
1:15 pm 13:15 Mostly Cloudy 70 21.2 43 5.9 37 37 WNW 14 22 29.80 1009 10 16 N/A
1:35 pm 13:35 Partly Cloudy 74 23.6 45 7.3 35 35 NW 16 26 29.80 1009 10 16 N/A
1:55 pm 13:55 Partly Cloudy 74 23.6 46 8 37 37 NW 13 20 29.80 1009 10 16 N/A
2:15 pm 14:15 Partly Cloudy 74 23.2 45 7 35 35 NW 13 20 29.80 1009 10 16 N/A
2:35 pm 14:35 Mostly Cloudy 74 23.6 44 6.8 34 34 WNW 16 26 29.80 1009 10 16 N/A
2:55 pm 14:55 Mostly Cloudy 74 23.6 44 6.9 34 34 NW 15 24 29.80 1009 10 16 N/A
3:15 pm 15:15 Cloudy 74 23.6 44 6.9 34 34 NW 10 17 29.80 1009 10 16 N/A
3:35 pm 15:35 Mostly Cloudy 74 23.6 44 6.4 33 33 W 15 24 29.80 1009 10 16 N/A
3:55 pm 15:55 Mostly Cloudy 74 23.6 44 6.5 33 33 WNW 13 20 29.80 1009 10 16 N/A
4:15 pm 16:15 Mostly Cloudy 74 23.6 43 6.3 33 33 NW 14 22 29.80 1009 10 16 N/A
4:35 pm 16:35 Mostly Cloudy 74 23.6 44 6.4 33 33 WNW 12 19 29.83 1010 10 16 N/A
4:55 pm 16:55 Cloudy 74 23.6 45 7.2 35 35 NW 7 11 29.83 1010 10 16 N/A
5:15 pm 17:15 Cloudy 72 22.3 43 6 35 35 WNW 14 22 29.83 1010 10 16 N/A
5:35 pm 17:35 Cloudy 71 21.6 43 6.3 37 37 NW 9 15 29.83 1010 10 16 N/A
5:55 pm 17:55 Cloudy 71 21.6 43 6.3 37 37 WNW 7 11 29.83 1010 10 16 N/A
6:15 pm 18:15 Cloudy 71 21.8 45 7.1 39 39 NW 9 15 29.83 1010 10 16 N/A
6:35 pm 18:35 Cloudy 69 20.8 43 6.1 39 39 NW 8 13 29.83 1010 10 16 N/A
6:55 pm 18:55 Mostly Cloudy 69 20.8 43 6 38 38 NW 9 15 29.83 1010 10 16 N/A
7:15 pm 19:15 Mostly Cloudy 71 21.8 43 6.1 36 36 NW 9 15 29.83 1010 10 16 N/A
7:35 pm 19:35 Partly Cloudy 69 20.8 42 5.6 37 37 NW 8 13 29.83 1010 10 16 N/A
7:55 pm 19:55 Sunny 69 20.8 42 5.4 37 37 NW 9 15 29.83 1010 10 16 N/A
8:15 pm 20:15 Sunny 69 20.8 43 6.1 39 39 NW 6 9 29.83 1010 10 16 N/A
8:35 pm 20:35 Sunny 69 20.8 45 7 41 41 WNW 6 9 29.83 1010 10 16 N/A
8:55 pm 20:55 Sunny 64 18 43 6.3 47 47 WNW 3 6 29.83 1010 10 16 N/A
9:15 pm 21:15 Clear 62 16.8 46 7.8 56 56 W 3 6 29.83 1010 10 16 N/A
9:35 pm 21:35 Clear 60 15.6 48 9 65 65 W 3 6 29.85 1011 10 16 N/A
9:55 pm 21:55 Clear 60 15.3 50 9.8 70 70 W 3 6 29.85 1011 10 16 N/A
10:15 pm 22:15 Clear 60 15.3 49 9.7 69 69 N N/A 29.85 1011 10 16 N/A
10:35 pm 22:35 Clear 57 13.8 50 9.9 78 78 N N/A 29.88 1012 10 16 N/A
10:55 pm 22:55 Clear 57 13.8 49 9.6 76 76 N N/A 29.88 1012 10 16 N/A
11:15 pm 23:15 Clear 57 13.8 50 9.8 77 77 N N/A 29.88 1012 10 16 N/A
11:35 pm 23:35 Clear 57 13.8 49 9.7 76 76 N N/A 29.88 1012 10 16 N/A
11:55 pm 23:55 Partly Cloudy 57 13.8 49 9.6 76 76 N N/A 29.88 1012 10 16 N/A

Powered by AerisWeather